TIME,DELAY(SENSOR),PRES,OXYGEN,RAWTEMP,T(OPTODE),TCPHASE,FLUOR,BETA(BETA700),BETA(BETA412),BETA(BETA440),CDOM,C(CSC),ED(ED412.20),ED(ED444.00),ED(ED489.60),ED(ED554.30),LU(LU412.10),LU(LU443.90),LU(LU489.70),LU(LU554.70),COMP,TILTX,TILTY,CHECK
1336794625,5809,883.3499755859375000,41.2931213378906250,564.3239135742188000,4.3518118858337400,55.3604087829589840,55,100,101,79,83,15491,0,0,0,0,2147127040,2147771328,2147576246,2147573357,2442,2,13,9490
1336798221,5811,963.4000244140625000,46.3760185241699200,573.8629150390625000,4.0554537773132320,54.7411994934082000,55,101,101,78,82,15491,0,0,0,0,2147126729,2147776027,2147572937,2147572498,3564,2,13,34396
1336801821,5808,983.8699951171875000,46.8489189147949200,574.0443725585938000,4.0498099327087400,54.6755409240722660,55,99,103,78,82,15498,0,0,0,0,2147123757,2147778989,2147572608,2147571209,3567,2,13,36840
1336805421,5809,986.0900268554688000,45.7992210388183600,573.4511718750000000,4.0682640075683590,54.8159904479980500,54,99,101,78,83,15490,0,0,0,0,2147125750,2147773952,2147569947,2147573979,545,2,13,31973
1336809021,5810,987.5800170898438000,46.2017593383789060,574.1342163085938000,4.0470180511474610,54.7643699645996100,54,102,103,78,82,15487,0,0,0,0,2147127506,2147772809,2147578834,2147572278,250,2,13,3753
1336812621,5811,990.2700195312500000,46.3107795715332000,575.2656860351562000,4.0118079185485840,54.7668190002441400,55,100,101,79,82,15483,0,0,0,0,2147129270,2147777636,2147575707,2147571072,40,2,13,27397
1336816221,5810,993.3800048828125000,45.9258613586425800,574.4213867187500000,4.0380778312683105,54.8117904663085940,55,102,102,79,83,15484,0,0,0,0,2147125897,2147773202,2147571712,2147572150,114,2,13,12661
1336819821,5809,996.2500000000000000,46.0102806091308600,575.1331176757812000,4.0159339904785160,54.8062400817871100,54,100,102,80,84,15483,0,0,0,0,2147131492,2147776274,2147570203,2147571108,121,2,13,62734
1336823421,5810,986.5900268554688000,45.5176391601562500,575.7014770507812000,3.9982450008392334,54.8805694580078100,55,101,102,79,82,15481,0,0,0,0,2147128557,2147774692,2147570724,2147576036,3479,2,13,19759
1336827021,5811,987.2000122070312000,46.0366783142089840,576.4666137695312000,3.9744300842285156,54.8160285949707000,55,100,103,78,84,15481,0,0,0,0,2147127515,2147774729,2147571849,2147572461,56,2,13,60063
1336830621,5809,994.4299926757812000,46.2727508544921900,576.7225952148438000,3.9664590358734130,54.7864685058593750,54,103,103,78,83,15478,0,0,0,0,2147126701,2147773485,2147570587,2147573202,129,2,13,58640
1336834221,5808,993.0499877929688000,45.5463600158691400,576.7108154296875000,3.9668269157409670,54.8909416198730500,55,99,102,78,83,15480,0,0,0,0,2147125604,2147772205,2147570944,2147571730,3595,2,13,25467
1336837821,5808,1000.0700073242188000,45.8148307800293000,576.8894042968750000,3.9612660408020020,54.8493995666503900,54,101,102,78,83,15478,0,0,0,0,2147128265,2147772562,2147571474,2147569691,353,2,13,39550
1336841421,5809,1009.0599975585938000,46.0850601196289060,575.2429199218750000,4.0125179290771480,54.7971992492675800,56,100,102,78,84,15476,0,0,0,0,2147128256,2147778733,2147575268,2147569051,2585,2,13,26789
1336845021,5811,1003.6900024414062000,45.3531417846679700,575.0850219726562000,4.0174307823181150,54.8978805541992200,55,114,101,79,84,15461,0,0,0,0,2147125266,2147773412,2147571730,2147573750,112,2,13,20034
1336848621,5808,1000.3800048828125000,45.8776092529296900,575.1704711914062000,4.0147719383239750,54.8276710510253900,55,98,101,78,85,15461,0,0,0,0,2147125449,2147775085,2147569929,2147574756,114,2,13,52015
1336852221,5810,992.9799804687500000,44.9331817626953100,576.6295166015625000,3.9693601131439210,54.9750709533691400,56,102,102,79,83,15456,0,0,0,0,2147125952,2147772708,2147570651,2147571931,19,2,13,38559
1336855821,5809,994.6599731445312000,45.2539100646972660,576.9699096679688000,3.9587609767913820,54.9363212585449200,55,99,101,78,83,15460,0,0,0,0,2147127872,2147773558,2147573622,2147572653,418,2,13,9171
1336859421,5811,997.8800048828125000,45.3059883117675800,577.1602172851562000,3.9528369903564453,54.9281692504882800,54,102,104,78,83,15456,0,0,0,0,2147126628,2147773668,2147571702,2147569755,63,2,13,41377
1336863021,5813,995.2600097656250000,45.6787300109863300,576.7941894531250000,3.9642310142517090,54.8679389953613300,55,99,102,79,83,15458,0,0,0,0,2147121846,2147770157,2147578139,2147570578,301,2,13,34027
1336866621,5813,998.2999877929688000,45.0944213867187500,576.3787841796875000,3.9771630764007570,54.9512214660644500,55,98,102,78,83,15458,0,0,0,0,2147128420,2147770944,2147574436,2147569316,62,2,13,34515
1336870221,5810,995.7500000000000000,44.7546997070312500,577.0571289062500000,3.9560470581054688,55.0049896240234400,54,98,104,79,83,15459,0,0,0,0,2147126153,2147772370,2147573531,2147572434,115,2,13,85
1336873821,5811,997.9699707031250000,46.6469993591308600,578.1192016601562000,3.9229719638824463,54.7481918334960940,54,99,103,78,84,15459,0,0,0,0,2147125732,2147775387,2147574418,2147572717,3272,2,13,45338
1336877421,5807,1005.1099853515625000,45.7733497619628900,577.0579223632812000,3.9560220241546630,54.8598709106445300,55,102,100,79,82,15456,0,0,0,0,2147123145,2147775552,2147570816,2147570852,124,2,13,26178
1336881021,5808,1002.1300048828125000,45.2923316955566400,576.6848144531250000,3.9676361083984375,54.9209518432617200,55,98,101,77,84,15457,0,0,0,0,2147124553,2147779556,2147577280,2147575104,200,2,13,39698
1336884621,5810,1008.5700073242188000,46.1635093688964840,576.6992187500000000,3.9671900272369385,54.7978897094726560,55,100,102,79,84,15453,0,0,0,0,2147126006,2147775616,2147575277,2147572077,3444,2,13,65381
1336888221,5810,1009.5999755859375000,46.0985908508300800,576.6890869140625000,3.9675009250640870,54.8077087402343750,56,104,101,79,83,15454,0,0,0,0,2147123995,2147776429,2147569563,2147571026,3176,2,13,26344
1336891821,5812,1007.4400024414062000,45.4745292663574200,575.4542846679688000,4.0059390068054200,54.8879890441894500,54,113,100,78,84,15454,0,0,0,0,2147124187,2147776914,2147573988,2147573622,3549,2,13,42828
1336895421,5809,1013.4799804687500000,45.2699012756347660,574.6704711914062000,4.0303311347961430,54.9031982421875000,55,100,102,79,83,15452,0,0,0,0,2147124955,2147776292,2147573385,2147573869,169,2,13,61899
1336899021,5809,1007.0300292968750000,44.9866409301757800,575.0618286132812000,4.0181541442871090,54.9494514465332000,55,100,102,79,84,15451,0,0,0,0,2147128393,2147774052,2147572900,2147570678,3008,2,13,1081
1336902621,5813,1004.8699951171875000,44.8838615417480500,576.4780883789062000,3.9740729331970215,54.9834709167480500,55,100,101,78,84,15451,0,0,0,0,2147127625,2147776393,2147571730,2147568246,9,2,13,51027
1336906221,5811,1000.9500122070312000,45.7414016723632800,576.8538208007812000,3.9623780250549316,54.8602485656738300,54,99,102,78,84,15450,0,0,0,0,2147125997,2147776859,2147568484,2147573028,3522,2,13,63720
1336909821,5809,1002.7399902343750000,45.7135086059570300,576.2451782226562000,3.9813230037689210,54.8572883605957000,55,102,102,78,83,15452,0,0,0,0,2147128448,2147775917,2147573888,2147572434,128,2,13,35517
1336913421,5810,1003.1500244140625000,44.8703613281250000,576.6522216796875000,3.9686529636383057,54.9860305786132800,55,101,102,78,83,15447,0,0,0,0,2147123300,2147769024,2147568274,2147568301,3424,2,13,58353
1336917021,5810,994.7500000000000000,45.4075317382812500,577.4746704101562000,3.9430410861968994,54.9192810058593750,55,101,102,78,84,15450,0,0,0,0,2147130011,2147773558,2147571821,2147575698,569,2,13,42277
1336920621,5811,998.6400146484375000,45.8283309936523440,577.4168090820312000,3.9448449611663820,54.8543891906738300,54,102,101,78,83,15430,0,0,0,0,2147126637,2147777764,2147571446,2147573339,3544,2,13,48883
1336924221,5808,1008.2299804687500000,45.8979682922363300,576.8532714843750000,3.9623908996582030,54.8416900634765600,54,104,102,77,83,15447,0,0,0,0,2147126217,2147773997,2147569572,2147572818,190,2,13,54100
1336927821,5809,1004.5200195312500000,44.8213996887207000,576.4761962890625000,3.9741311073303223,54.9878807067871100,56,100,102,79,84,15449,0,0,0,0,2147125257,2147773723,2147570925,2147570953,464,2,13,54590
1336931421,5811,1014.2500000000000000,45.2212905883789060,575.7479858398438000,3.9967980384826660,54.9216995239257800,54,100,101,79,84,15445,0,0,0,0,2147127552,2147777051,2147570313,2147573083,217,2,13,37514
1336935021,5810,1010.4899902343750000,44.8602981567382800,576.3911743164062000,3.9767780303955080,54.9825706481933600,54,98,101,77,85,15442,0,0,0,0,2147124013,2147773760,2147574427,2147571328,143,2,13,33247
1336938656,5811,1014.4699707031250000,44.3314590454101560,575.0776977539062000,4.0176601409912110,55.0434112548828100,55,99,100,79,83,15448,0,0,0,0,2147126838,2147777654,2147569737,2147570870,186,2,13,64941
